This is the latest recevied weather packets stored in our database for station/object W4ZHA. If no packets are shown the sender has not sent any weather packets the latest 10 day(s).
| Time | Temp. | Humidity | Pressure | Rain* | Wind** | Luminosity | Snow |
|---|---|---|---|---|---|---|---|
| 1787846261 | 28.33° C | 62% | 1016.5 hPa | 0 mm | - | 70 W/m² | - |
| 1787845958 | 27.78° C | 61% | 1016.1 hPa | 0 mm | - | 86 W/m² | - |
| 1787845653 | 27.78° C | 61% | 1016.5 hPa | 0 mm | - | 171 W/m² | - |
| 1787845352 | 27.78° C | 63% | 1016.5 hPa | 0 mm | - | 63 W/m² | - |
| 1787845049 | 27.22° C | 63% | 1016.8 hPa | 0 mm | - | 57 W/m² | - |
| 1787844744 | 27.22° C | 63% | 1016.5 hPa | 0 mm | - | 55 W/m² | - |
| 1787844443 | 27.22° C | 63% | 1016.5 hPa | 0 mm | - | 54 W/m² | - |
| 1787844138 | 26.67° C | 64% | 1016.5 hPa | 0 mm | - | 54 W/m² | - |
| 1787843838 | 26.11° C | 64% | 1016.8 hPa | 0 mm | - | 54 W/m² | - |
| 1787843533 | 26.67° C | 64% | 1016.5 hPa | 0 mm | - | 55 W/m² | - |
| 1787843230 | 26.67° C | 64% | 1016.5 hPa | 0 mm | - | 67 W/m² | - |
| 1787842930 | 26.11° C | 64% | 1016.1 hPa | 0 mm | - | 52 W/m² | - |
| 1787842629 | 26.11° C | 65% | 1016.5 hPa | 0 mm | - | 53 W/m² | - |
| 1787842324 | 26.11° C | 66% | 1016.5 hPa | 0 mm | - | 53 W/m² | - |
| 1787842019 | 26.11° C | 66% | 1016.8 hPa | 0 mm | - | 51 W/m² | - |
| 1787841715 | 26.11° C | 66% | 1016.5 hPa | 0 mm | - | 51 W/m² | - |
| 1787841415 | 25° C | 66% | 1016.5 hPa | 0 mm | - | 51 W/m² | - |
| 1787841109 | 25° C | 66% | 1016.5 hPa | 0 mm | - | 51 W/m² | - |
| 1787840804 | 25° C | 67% | 1016.1 hPa | 0 mm | - | 52 W/m² | - |
| 1787840499 | 25° C | 66% | 1016.5 hPa | 0 mm | - | 52 W/m² | - |
| 1787840195 | 25° C | 66% | 1016.8 hPa | 0 mm | - | 52 W/m² | - |
| 1787839894 | 25° C | 66% | 1016.8 hPa | 0 mm | - | 53 W/m² | - |
| 1787839590 | 25° C | 68% | 1016.5 hPa | 0 mm | - | 53 W/m² | - |
| 1787839290 | 24.44° C | 68% | 1016.5 hPa | 0 mm | - | 56 W/m² | - |
| 1787838984 | 24.44° C | 68% | 1016.5 hPa | 0 mm | - | 65 W/m² | - |
* Rain latest hour (hover to see other rain measurements)
** Current wind speed in m/s (hover to see current wind gust speed)